TimeEDT,TemperatureF,Dew PointF,Humidity,Sea Level PressureIn,VisibilityMPH,Wind Direction,Wind SpeedMPH,Gust SpeedMPH,PrecipitationIn,Events,Conditions,WindDirDegrees,DateUTC
12:52 AM,70.0,68.0,93,30.26,10.0,Calm,Calm,-,N/A,,Mostly Cloudy,0,2013-07-15 04:52:00
1:52 AM,69.1,68.0,96,30.25,9.0,Calm,Calm,-,N/A,,Clear,0,2013-07-15 05:52:00
2:52 AM,68.0,66.9,96,30.24,9.0,Calm,Calm,-,N/A,,Clear,0,2013-07-15 06:52:00
3:52 AM,66.9,66.0,97,30.25,6.0,Calm,Calm,-,N/A,,Partly Cloudy,0,2013-07-15 07:52:00
4:52 AM,66.0,64.9,96,30.25,6.0,Calm,Calm,-,N/A,,Partly Cloudy,0,2013-07-15 08:52:00
5:52 AM,66.0,64.0,93,30.25,6.0,Calm,Calm,-,N/A,,Partly Cloudy,0,2013-07-15 09:52:00
6:52 AM,68.0,66.0,93,30.25,8.0,Calm,Calm,-,N/A,,Clear,0,2013-07-15 10:52:00
7:52 AM,75.9,69.1,79,30.26,10.0,Calm,Calm,-,N/A,,Scattered Clouds,0,2013-07-15 11:52:00
8:52 AM,81.0,69.1,67,30.25,10.0,Variable,3.5,-,N/A,,Partly Cloudy,0,2013-07-15 12:52:00
9:52 AM,-9999,-9999,N/A,30.24,10.0,North,4.6,-,N/A,,Partly Cloudy,350,2013-07-15 13:52:00
10:52 AM,-9999,-9999,N/A,30.24,10.0,NNW,5.8,-,N/A,,Scattered Clouds,340,2013-07-15 14:52:00
11:52 AM,-9999,-9999,N/A,30.23,10.0,Variable,5.8,-,N/A,,Clear,0,2013-07-15 15:52:00
12:52 PM,-9999,-9999,N/A,30.22,10.0,Variable,5.8,-,N/A,,Scattered Clouds,0,2013-07-15 16:52:00
1:52 PM,-9999,-9999,N/A,30.21,10.0,Variable,6.9,-,N/A,,Scattered Clouds,0,2013-07-15 17:52:00
2:52 PM,87.1,64.0,46,30.19,10.0,Variable,6.9,-,N/A,,Partly Cloudy,0,2013-07-15 18:52:00
3:52 PM,-9999,-9999,N/A,30.18,10.0,WNW,9.2,-,N/A,,Partly Cloudy,300,2013-07-15 19:52:00
4:52 PM,-9999,-9999,N/A,30.18,10.0,Variable,5.8,-,N/A,,Clear,0,2013-07-15 20:52:00
5:11 PM,-9999,-9999,N/A,30.17,10.0,Variable,6.9,-,N/A,,Partly Cloudy,0,2013-07-15 21:11:00
5:52 PM,-9999,-9999,N/A,30.17,10.0,NW,6.9,-,N/A,,Clear,310,2013-07-15 21:52:00
6:52 PM,-9999,-9999,N/A,30.17,10.0,NW,4.6,-,N/A,,Clear,310,2013-07-15 22:52:00
7:52 PM,-9999,-9999,N/A,30.17,10.0,Calm,Calm,-,N/A,,Clear,0,2013-07-15 23:52:00
8:52 PM,-9999,-9999,N/A,30.18,10.0,Calm,Calm,-,N/A,,Clear,0,2013-07-16 00:52:00
9:52 PM,-9999,-9999,N/A,30.19,10.0,Calm,Calm,-,N/A,,Scattered Clouds,0,2013-07-16 01:52:00
10:52 PM,-9999,-9999,N/A,30.20,10.0,Calm,Calm,-,N/A,,Partly Cloudy,0,2013-07-16 02:52:00
11:52 PM,-9999,-9999,N/A,30.20,10.0,Calm,Calm,-,N/A,,Clear,0,2013-07-16 03:52:00